Location: Gadern
(49.5873°N, 8.8138°E)
Time: 22:04:49
(UTC+00:00)

SL-16 R/B - Pass Details

Date: 19 May 2025
Orbit: 841 x 844 km, 71.0° (Epoch: 15 June)

Event Time Altitude Azimuth Distance (km) Brightness Sun altitude
Rises 20:56:49 0° 334° (NNW) 3,414 7.2 -13.4°
Reaches altitude 10° 20:59:43 10° 347° (NNW) 2,476 5.8 -13.7°
Maximum altitude 21:04:24 26° 43° (NE) 1,631 3.8 -14.1°
Drops below altitude 10° 21:09:03 10° 98° (E) 2,467 4.3 -14.5°
Enters shadow 21:09:26 - 100° (E) 2,586 4.3 -14.6°
